[[{"header":{"parameterUnit":"m.s-1","parameterCategory":1,"la1":30.2991,"la2":30.254,"lo1":-89.0895,"lo2":-89.0444,"dy":0.0017,"dx":0.0017,"nx":28,"ny":28,"refTime":"2025-03-24T09:00:00:Z","depth":0,"parameterNumber":2,"parameterNumberName":"U-component_of_WINDS"},"data":[0,0,0,0,0,0,0,0,0,0,0,0,0,0,0,0,0,0,0,0,0,0,0,0,0,0,0,0,0,0,0,0,0,0,0,0,0,0,0,0,0,0,0,0,0,0,0,0,0,0,0,0,0,0,0,0,0,0,1.39,1.39,0,1.3892,1.3892,1.3892,1.3862,1.3861,1.386,1.386,1.3853,1.3853,1.3853,0,0,0,0,0,0,0,0,0,0,0,0,0,1.3888,1.3888,1.39,1.39,1.3899,1.3892,1.3892,1.3892,1.3862,1.3861,1.386,1.3859,1.3852,1.3853,1.3854,0,0,0,0,0,0,0,0,0,0,0,0,0,1.3888,1.3888,1.39,1.3884,1.3882,1.3892,1.3892,1.3892,1.3862,1.3861,1.386,1.3859,1.3852,1.3853,1.3854,1.3879,0,0,1.3856,1.3856,0,0,0,0,0,0,0,0,1.3888,1.3888,1.3886,1.3885,1.3883,1.3877,1.3885,1.3888,1.3862,1.387,1.386,1.3859,1.3862,1.3861,1.3862,1.3879,1.3878,1.3856,1.3856,1.3857,1.3857,0,0,0,0,0,0,0,1.3888,1.3888,1.3897,1.3886,1.3884,1.3877,1.3876,1.3886,1.3872,1.3869,1.3867,1.3866,1.3861,1.3862,1.3862,1.3878,1.3856,1.3856,1.3857,1.3857,1.3915,1.3916,0,0,0,0,0,0,1.389,1.3889,1.3897,1.3897,1.3883,1.3878,1.3877,1.388,1.3871,1.3869,1.3867,1.3865,1.3861,1.3861,1.3862,1.3891,1.3857,1.3857,1.3858,1.3914,1.3916,1.3917,0,0,0,0,0,0,1.389,1.3891,1.3897,1.3892,1.3892,1.3879,1.3883,1.388,1.3882,1.387,1.3867,1.3871,1.386,1.3861,1.3875,1.389,1.3857,1.3858,1.3913,1.3915,1.3916,1.395,0,0,0,0,0,0,1.389,1.3891,1.3901,1.3892,1.3893,1.3911,1.3884,1.3881,1.3883,1.388,1.3873,1.3871,1.3859,1.3874,1.3876,1.3891,1.3859,1.3912,1.3914,1.3916,1.3948,1.3953,1.3957,0,0,0,0,0,1.3889,1.3911,1.3901,1.3903,1.3904,1.3912,1.3912,1.3898,1.3884,1.3894,1.3886,1.3871,1.3888,1.3876,1.3877,1.3893,1.391,1.3913,1.3916,1.3945,1.3952,1.3957,0,0,0,0,0,0,1.3921,1.3909,1.3899,1.3918,1.3916,1.3907,1.3918,1.3905,1.3907,1.3904,1.3887,1.3886,1.3903,1.3899,1.3886,1.3917,1.3897,1.39,1.3919,1.3925,1.393,1.393,1.3859,0,0,0,0,0,1.393,1.3937,1.3927,1.3944,1.3944,1.3931,1.3934,1.3924,1.3921,1.392,1.3914,1.3912,1.3917,1.3921,1.3925,1.3947,1.3945,1.3958,1.3963,1.3967,1.397,1.3982,1.3988,1.3925,1.3925,1.3925,0,0,1.3949,1.3944,1.3949,1.3951,1.3948,1.3956,1.3931,1.394,1.3946,1.3922,1.3935,1.393,1.3927,1.3946,1.3953,1.3943,1.3987,1.397,1.3974,1.3974,1.3985,1.3991,1.3996,1.3927,1.3927,1.3926,0,0,1.3988,1.3985,1.3999,1.3997,1.3993,1.3985,1.3988,1.3981,1.3977,1.399,1.3972,1.3978,1.3987,1.3986,1.3986,1.4025,1.4011,1.4027,1.4052,1.4064,1.4069,1.4073,1.4087,1.4092,1.403,1.403,1.403,0,1.4013,1.4024,1.4008,1.4019,1.402,1.3999,1.4013,1.4012,1.401,1.4011,1.4,1.4011,1.4007,1.4025,1.4034,1.4035,1.4039,1.4028,1.4069,1.4073,1.4077,1.409,1.4096,1.4032,1.4031,1.4031,1.4031,0,1.4054,1.4062,1.4074,1.4072,1.4075,1.4088,1.4075,1.4079,1.4069,1.4061,1.4075,1.407,1.4072,1.4076,1.4066,1.4092,1.4086,1.4072,1.4051,1.4085,1.4097,1.4102,1.4034,1.4034,1.4033,1.4033,0,0,1.4112,1.4102,1.4107,1.4106,1.4101,1.4107,1.4118,1.4121,1.4125,1.4125,1.4134,1.4142,1.4129,1.413,1.4119,1.4129,1.4161,1.4114,1.4114,1.4123,1.419,1.4201,1.4207,1.4151,1.4152,1.4153,1.4191,0,1.415,1.4169,1.4156,1.4178,1.4185,1.4165,1.4175,1.4173,1.4166,1.4172,1.4164,1.4171,1.4153,1.4153,1.4162,1.4155,1.4174,1.4152,1.416,1.4161,1.4162,1.4214,1.4225,1.4261,1.4195,1.4196,1.4197,0,1.4196,1.4197,1.422,1.4213,1.4215,1.4225,1.4226,1.4232,1.4229,1.4223,1.4224,1.4211,1.4222,1.4202,1.4217,1.4202,1.4205,1.4202,1.4203,1.4204,1.4181,1.4216,1.4272,1.4278,1.4204,1.4203,1.4203,0,1.4237,1.4244,1.4259,1.4258,1.4251,1.4258,1.4255,1.4251,1.4254,1.4255,1.4256,1.4259,1.4261,1.4263,1.4251,1.4237,1.4268,1.4247,1.4264,1.4265,1.4272,1.4272,1.433,1.4273,1.4273,1.4273,1.4273,0,1.428,1.4294,1.4277,1.4286,1.4302,1.4286,1.4303,1.4298,1.4294,1.4302,1.4285,1.4292,1.4276,1.4282,1.4273,1.4287,1.4288,1.4284,1.4281,1.4286,1.4286,1.4287,1.4284,1.4274,1.4274,1.4274,1.4274,0,1.4328,1.4317,1.4331,1.4323,1.4321,1.4333,1.4326,1.4334,1.4327,1.4337,1.4338,1.4326,1.4333,1.4321,1.4326,1.4319,1.434,1.4333,1.4341,1.4339,1.4357,1.4356,1.4418,1.4426,1.4364,1.4365,1.4365,0,1.4356,1.4367,1.436,1.4364,1.4362,1.4369,1.4371,1.4357,1.436,1.4358,1.4366,1.4371,1.4374,1.4385,1.4377,1.4381,1.4374,1.4396,1.4374,1.4379,1.4375,1.4374,1.4375,1.44,1.4401,1.4401,1.4402,0,1.4408,1.4402,1.4406,1.4409,1.4412,1.4414,1.4413,1.4418,1.4402,1.4407,1.4413,1.4416,1.442,1.4426,1.4427,1.4424,1.4411,1.4409,1.4413,1.4418,1.4422,1.442,1.4353,1.4407,1.4407,1.4406,1.4406,1.4406,1.4447,1.4456,1.4453,1.4458,1.4456,1.4457,1.4464,1.4458,1.4462,1.4465,1.4456,1.4465,1.4462,1.4463,1.4461,1.4468,1.4458,1.4464,1.4466,1.4468,1.4471,1.4421,1.4468,1.4468,1.4468,1.4468,1.4467,0,1.4498,1.4495,1.45,1.4501,1.4505,1.4492,1.4491,1.4496,1.4503,1.4502,1.4505,1.4512,1.4517,1.451,1.4513,1.452,1.4514,1.4522,1.4521,1.4521,1.4479,1.4475,1.4526,1.4526,1.4526,1.4526,1.4526,1.4526,1.4525,1.4539,1.4533,1.4546,1.4543,1.4551,1.4552,1.4552,1.4551,1.456,1.4564,1.4559,1.4555,1.4558,1.4563,1.456,1.4562,1.4572,1.4568,1.4529,1.4524,1.4518,1.4514,1.4573,1.4573,1.4609,1.4609,1.4609]},{"header":{"parameterUnit":"m.s-1","parameterCategory":1,"la1":30.2991,"la2":30.254,"lo1":-89.0895,"lo2":-89.0444,"dy":0.0017,"dx":0.0017,"nx":28,"ny":28,"refTime":"2025-03-24T09:00:00:Z","depth":0,"parameterNumber":3,"parameterNumberName":"V-component_of_WINDS"},"data":[0,0,0,0,0,0,0,0,0,0,0,0,0,0,0,0,0,0,0,0,0,0,0,0,0,0,0,0,0,0,0,0,0,0,0,0,0,0,0,0,0,0,0,0,0,0,0,0,0,0,0,0,0,0,0,0,0,0,3.4277,3.4278,0,3.4351,3.4352,3.4352,3.4354,3.4353,3.4352,3.4351,3.4423,3.4426,3.4428,0,0,0,0,0,0,0,0,0,0,0,0,0,3.4135,3.4137,3.4277,3.4278,3.4279,3.4351,3.4352,3.4353,3.4354,3.4353,3.4352,3.4351,3.4422,3.4425,3.4429,0,0,0,0,0,0,0,0,0,0,0,0,0,3.4201,3.4138,3.4277,3.4289,3.429,3.435,3.4352,3.4353,3.4354,3.4353,3.4352,3.435,3.4421,3.4425,3.4429,3.4482,0,0,3.4442,3.4444,0,0,0,0,0,0,0,0,3.4197,3.4206,3.4286,3.4288,3.429,3.4342,3.4328,3.4396,3.4355,3.433,3.4351,3.435,3.4397,3.4403,3.442,3.4485,3.4488,3.4442,3.4445,3.4446,3.4448,0,0,0,0,0,0,0,3.4193,3.4203,3.4306,3.4287,3.429,3.4289,3.4297,3.4341,3.437,3.4332,3.4332,3.4341,3.4398,3.4416,3.4421,3.4489,3.4442,3.4446,3.4448,3.445,3.4602,3.4603,0,0,0,0,0,0,3.4186,3.4199,3.4304,3.4308,3.424,3.4293,3.4301,3.4327,3.437,3.4375,3.4342,3.4341,3.4409,3.4416,3.4424,3.4489,3.4446,3.445,3.4453,3.46,3.4602,3.4604,0,0,0,0,0,0,3.4183,3.4196,3.4301,3.4254,3.4267,3.4296,3.4325,3.4329,3.4347,3.4377,3.4382,3.4355,3.4408,3.4418,3.4468,3.4492,3.4452,3.4456,3.4598,3.4601,3.4603,3.462,0,0,0,0,0,0,3.4179,3.4195,3.4216,3.4255,3.427,3.4345,3.4326,3.4331,3.4354,3.4353,3.4391,3.4396,3.4408,3.4462,3.4472,3.4497,3.4459,3.4596,3.46,3.4602,3.4617,3.4622,3.4627,0,0,0,0,0,3.4174,3.4217,3.4217,3.423,3.4297,3.4346,3.4355,3.4369,3.4356,3.4377,3.4397,3.4395,3.4487,3.4467,3.4478,3.4505,3.4595,3.4599,3.4602,3.4615,3.4621,3.4627,0,0,0,0,0,0,3.4179,3.4222,3.4223,3.4279,3.4309,3.4346,3.4374,3.4375,3.4408,3.4406,3.4421,3.4429,3.4479,3.4496,3.4473,3.4558,3.4539,3.4545,3.4545,3.4551,3.4556,3.4552,3.4462,0,0,0,0,0,3.4186,3.4224,3.4259,3.4305,3.432,3.4344,3.4366,3.4375,3.4406,3.4418,3.4441,3.4471,3.4506,3.4529,3.4564,3.4619,3.4627,3.4643,3.4647,3.4651,3.4657,3.4688,3.4695,3.4615,3.4615,3.4615,0,0,3.4202,3.4231,3.4253,3.4307,3.4331,3.4369,3.4355,3.4395,3.4423,3.4424,3.4473,3.4491,3.4524,3.4577,3.4602,3.4593,3.468,3.4656,3.4659,3.4662,3.4692,3.47,3.4707,3.4618,3.4617,3.4617,0,0,3.4251,3.4276,3.4318,3.4343,3.438,3.4396,3.4406,3.4443,3.4456,3.4505,3.4507,3.4539,3.46,3.4624,3.4645,3.4702,3.4702,3.4713,3.4738,3.4769,3.4775,3.4781,3.4802,3.481,3.4718,3.4718,3.4718,0,3.4267,3.4325,3.4339,3.438,3.4404,3.4407,3.4449,3.4472,3.4518,3.4534,3.4524,3.4601,3.4623,3.4683,3.4697,3.4713,3.4724,3.4709,3.4773,3.4779,3.4784,3.4805,3.4813,3.4719,3.4719,3.4719,3.4719,0,3.4342,3.4382,3.4411,3.4457,3.4484,3.4525,3.4545,3.457,3.4575,3.4592,3.4642,3.4669,3.471,3.4724,3.4729,3.4784,3.4778,3.477,3.4752,3.4793,3.4813,3.4821,3.4721,3.472,3.472,3.472,0,0,3.4397,3.4451,3.4462,3.4483,3.4524,3.4555,3.4595,3.4636,3.4658,3.4688,3.4723,3.4775,3.4768,3.4791,3.4799,3.4825,3.4871,3.4814,3.4815,3.4825,3.4933,3.494,3.4949,3.487,3.4871,3.4872,3.4931,0,3.4451,3.4526,3.4541,3.4605,3.4642,3.4646,3.4681,3.471,3.4726,3.4759,3.4775,3.4813,3.48,3.4814,3.484,3.486,3.4893,3.4855,3.4902,3.4904,3.4896,3.4959,3.4967,3.5021,3.4939,3.494,3.4941,0,3.4526,3.4561,3.4629,3.4666,3.4682,3.4714,3.4753,3.4784,3.4816,3.4826,3.4852,3.4857,3.4899,3.4877,3.4935,3.4909,3.4929,3.4941,3.4943,3.495,3.4926,3.4969,3.5038,3.5047,3.4953,3.4952,3.4951,0,3.4561,3.4624,3.4674,3.4692,3.4736,3.4758,3.4777,3.4808,3.4832,3.4865,3.488,3.4917,3.4937,3.4965,3.498,3.4963,3.5037,3.5017,3.5046,3.5046,3.5063,3.5062,3.5138,3.5073,3.5073,3.5073,3.5072,0,3.4621,3.4664,3.4691,3.4722,3.4769,3.4784,3.483,3.4848,3.4875,3.4909,3.4913,3.4944,3.496,3.4994,3.5005,3.5051,3.506,3.5069,3.5072,3.507,3.5069,3.5084,3.5081,3.5075,3.5074,3.5074,3.5074,0,3.4669,3.4689,3.4744,3.4781,3.4791,3.4825,3.4856,3.4885,3.4901,3.4943,3.4954,3.4978,3.5018,3.5035,3.5083,3.509,3.5144,3.5143,3.5134,3.5135,3.5164,3.5162,3.5254,3.5268,3.5192,3.5193,3.5193,0,3.4708,3.4741,3.4782,3.4805,3.4825,3.4863,3.4887,3.4903,3.4928,3.4967,3.4992,3.5031,3.5065,3.5127,3.5149,3.5185,3.5186,3.5216,3.5192,3.5189,3.5188,3.5187,3.5191,3.5221,3.5222,3.5222,3.5223,0,3.4774,3.4782,3.4818,3.4858,3.4888,3.4919,3.495,3.4968,3.4988,3.5016,3.5058,3.5083,3.5133,3.5173,3.5211,3.5229,3.5229,3.523,3.5239,3.5238,3.5232,3.5237,3.5148,3.5228,3.5228,3.5227,3.5227,3.5227,3.4819,3.4849,3.4883,3.4923,3.4948,3.4977,3.5007,3.5026,3.5062,3.5104,3.511,3.5155,3.5185,3.5237,3.5256,3.5291,3.5283,3.5296,3.5299,3.5303,3.5306,3.5225,3.5297,3.5297,3.5297,3.5297,3.5297,0,3.4887,3.4909,3.4946,3.499,3.5021,3.5019,3.5053,3.5079,3.5119,3.5148,3.518,3.5228,3.5266,3.529,3.5329,3.5351,3.5353,3.5361,3.536,3.5365,3.5309,3.5298,3.536,3.536,3.536,3.536,3.536,3.5359,3.4926,3.4977,3.4989,3.5052,3.5073,3.5118,3.5137,3.5164,3.5187,3.5241,3.5273,3.5289,3.5316,3.5356,3.5391,3.5397,3.5412,3.5421,3.5427,3.5375,3.5369,3.5362,3.5352,3.5424,3.5424,3.548,3.548,3.5481]}]]